IBE26UJ EDDL-LEMD

Flight info

Callsign IBE26UJ
Flight time 2h 1m
Altitude 36000
Route NETEX1K NETEX DCT RASCA DCT FAMEN DCT AHVEC/N0432F370 DCT RESMI DCT DEKOD DCT DISAK DCT ARKIP DCT ARNAV DCT LMG DCT UVELI DCT OSMOB DCT ARVID DCT PPN DCT NOLSA DCT ALEPO DCT VASUM DCT BANEV
Aircraft A21N/M-SDE2E3FGHIRWXY/LB1

Departure

Time 2026-05-01 10:05
Airport Düsseldorf Airport (EDDL)

Arrival

Time 2026-05-01 12:06
Airport Adolfo Suárez Madrid–Barajas Airport (LEMD)
Time Latitude Longitude Altitude Speed Heading
2026-05-01 09:50 51.28220 6.76801 127 ft 0 kts 245°
2026-05-01 09:59 51.28224 6.76815 126 ft 4 kts 263°
2026-05-01 09:59 51.28217 6.76838 131 ft 4 kts 346°
2026-05-01 09:59 51.28195 6.76841 131 ft 1 kts
2026-05-01 10:02 51.28217 6.76845 131 ft 9 kts
2026-05-01 10:02 51.28323 6.76863 130 ft 20 kts
2026-05-01 10:02 51.28463 6.76784 133 ft 22 kts 359°
2026-05-01 10:03 51.28557 6.76919 134 ft 21 kts 53°
2026-05-01 10:03 51.28654 6.77130 136 ft 26 kts 54°
2026-05-01 10:03 51.28778 6.77386 134 ft 32 kts 51°
2026-05-01 10:03 51.28921 6.77684 135 ft 36 kts 52°
2026-05-01 10:04 51.29078 6.78012 137 ft 38 kts 53°
2026-05-01 10:04 51.29216 6.78270 137 ft 32 kts 35°
2026-05-01 10:04 51.29418 6.78461 136 ft 35 kts
2026-05-01 10:04 51.29459 6.78337 136 ft 14 kts 230°
2026-05-01 10:05 51.29237 6.77882 137 ft 95 kts 232°
2026-05-01 10:05 51.28657 6.76653 172 ft 173 kts 231°
2026-05-01 10:05 51.27921 6.75058 943 ft 173 kts 226°
2026-05-01 10:05 51.27186 6.73546 1971 ft 179 kts 226°
2026-05-01 10:06 51.26395 6.71875 2863 ft 201 kts 225°
2026-05-01 10:06 51.25534 6.70033 3844 ft 212 kts 226°
2026-05-01 10:06 51.24645 6.68104 4857 ft 219 kts 227°
2026-05-01 10:06 51.23742 6.66140 6274 ft 220 kts 228°
2026-05-01 10:07 51.22834 6.64144 7563 ft 226 kts 232°
2026-05-01 10:07 51.22176 6.61736 8495 ft 257 kts 257°
2026-05-01 10:07 51.22390 6.58733 9193 ft 293 kts 292°
2026-05-01 10:07 51.23680 6.56149 10261 ft 307 kts 325°
2026-05-01 10:08 51.27800 6.54763 12624 ft 311 kts
2026-05-01 10:08 51.29971 6.54356 13812 ft 321 kts 342°
2026-05-01 10:08 51.31913 6.52563 14962 ft 326 kts 323°
2026-05-01 10:09 51.33681 6.50236 16038 ft 332 kts 317°
2026-05-01 10:09 51.35212 6.47437 17098 ft 339 kts 301°
2026-05-01 10:09 51.36120 6.43932 18071 ft 344 kts 278°
2026-05-01 10:09 51.36112 6.40156 19234 ft 339 kts 256°
2026-05-01 10:10 51.35397 6.36575 20268 ft 340 kts 245°
2026-05-01 10:10 51.34463 6.33049 21157 ft 347 kts 244°
2026-05-01 10:10 51.31963 6.26402 22911 ft 358 kts 226°
2026-05-01 10:11 51.30116 6.23589 23360 ft 375 kts 219°
2026-05-01 10:11 51.28038 6.20911 23819 ft 390 kts 216°
2026-05-01 10:11 51.25835 6.18302 24442 ft 395 kts 214°
2026-05-01 10:11 51.23598 6.15725 25195 ft 397 kts 214°
2026-05-01 10:12 51.21375 6.13159 25839 ft 402 kts 214°
2026-05-01 10:12 51.19104 6.10508 26429 ft 407 kts 215°
2026-05-01 10:12 51.14513 6.05058 27669 ft 414 kts 216°
2026-05-01 10:13 51.12200 6.02285 28215 ft 419 kts 216°
2026-05-01 10:13 51.09862 5.99477 28782 ft 422 kts 216°
2026-05-01 10:13 51.07544 5.96694 29373 ft 424 kts 216°
2026-05-01 10:14 51.02782 5.90988 30381 ft 432 kts 216°
2026-05-01 10:14 51.00370 5.88108 30866 ft 434 kts 216°
2026-05-01 10:14 50.97953 5.85225 31373 ft 435 kts 216°
2026-05-01 10:14 50.95535 5.82346 31984 ft 432 kts 216°
2026-05-01 10:15 50.93141 5.79499 32639 ft 428 kts 216°
2026-05-01 10:15 50.90760 5.76672 33240 ft 426 kts 216°
2026-05-01 10:15 50.88391 5.73863 33805 ft 424 kts 216°
2026-05-01 10:15 50.86058 5.71101 34348 ft 423 kts 217°
2026-05-01 10:16 50.83708 5.68322 34798 ft 421 kts 216°
2026-05-01 10:16 50.81357 5.65547 35226 ft 420 kts 217°
2026-05-01 10:16 50.76676 5.60027 36073 ft 418 kts 216°
2026-05-01 10:17 50.74341 5.57280 36273 ft 418 kts 216°
2026-05-01 10:17 50.67374 5.49104 36292 ft 417 kts 216°
2026-05-01 10:18 50.60365 5.40911 36279 ft 418 kts 216°
2026-05-01 10:19 50.55700 5.35474 36283 ft 417 kts 216°
2026-05-01 10:19 50.51027 5.30040 36281 ft 417 kts 216°
2026-05-01 10:20 50.44015 5.21915 36281 ft 417 kts 216°
2026-05-01 10:20 50.39366 5.16544 36285 ft 417 kts 216°
2026-05-01 10:21 50.32345 5.08459 36284 ft 417 kts 216°
2026-05-01 10:22 50.25346 5.00424 36287 ft 415 kts 214°
2026-05-01 10:23 50.18357 4.92438 36281 ft 414 kts 215°
2026-05-01 10:23 50.12002 4.83384 36281 ft 417 kts 227°
2026-05-01 10:24 50.08132 4.76360 36278 ft 436 kts 229°
2026-05-01 10:24 50.04162 4.68980 36279 ft 450 kts 228°
2026-05-01 10:25 49.96048 4.54169 36282 ft 449 kts 225°
2026-05-01 10:26 49.91792 4.47170 36276 ft 448 kts 224°
2026-05-01 10:27 49.83117 4.33224 36276 ft 449 kts 224°
2026-05-01 10:28 49.76626 4.22730 36277 ft 449 kts 224°
2026-05-01 10:28 49.70137 4.12261 36267 ft 449 kts 224°
2026-05-01 10:29 49.63654 4.01852 36266 ft 450 kts 224°
2026-05-01 10:30 49.54937 3.87922 36265 ft 451 kts 224°
2026-05-01 10:31 49.46236 3.74093 36258 ft 451 kts 223°
2026-05-01 10:32 49.39680 3.63725 36250 ft 450 kts 223°
2026-05-01 10:33 49.30933 3.49955 36246 ft 448 kts 223°
2026-05-01 10:34 49.24418 3.39749 36246 ft 448 kts 223°
2026-05-01 10:34 49.20054 3.32935 36241 ft 447 kts 223°
2026-05-01 10:35 49.13515 3.22761 36241 ft 447 kts 223°
2026-05-01 10:35 49.09167 3.16016 36237 ft 447 kts 223°
2026-05-01 10:36 49.02605 3.05872 36244 ft 447 kts 222°
2026-05-01 10:37 48.98231 2.99130 36241 ft 446 kts 222°
2026-05-01 10:37 48.91698 2.89099 36238 ft 446 kts 222°
2026-05-01 10:38 48.87320 2.82398 36235 ft 446 kts 222°
2026-05-01 10:38 48.82964 2.75643 36236 ft 448 kts 226°
2026-05-01 10:39 48.79229 2.68098 36236 ft 450 kts 231°
2026-05-01 10:39 48.76247 2.61600 36237 ft 451 kts 232°
2026-05-01 10:40 48.72697 2.53740 36238 ft 451 kts 232°
2026-05-01 10:40 48.69157 2.45938 36237 ft 452 kts 232°
2026-05-01 10:41 48.65579 2.38116 36237 ft 451 kts 232°
2026-05-01 10:42 48.60121 2.26486 36236 ft 450 kts 226°
2026-05-01 10:42 48.55512 2.20333 36234 ft 441 kts 208°
2026-05-01 10:43 48.49903 2.16876 36231 ft 435 kts 192°
2026-05-01 10:43 48.44013 2.14840 36222 ft 434 kts 189°
2026-05-01 10:44 48.38077 2.13038 36217 ft 435 kts 189°
2026-05-01 10:44 48.32130 2.11208 36224 ft 436 kts 188°
2026-05-01 10:45 48.26136 2.10629 36238 ft 431 kts 174°
2026-05-01 10:45 48.20212 2.11595 36245 ft 430 kts 171°
2026-05-01 10:46 48.14257 2.12697 36235 ft 433 kts 176°
2026-05-01 10:46 48.08205 2.12211 36236 ft 436 kts 184°
2026-05-01 10:47 48.02200 2.11130 36244 ft 436 kts 185°
2026-05-01 10:47 47.96173 2.09921 36244 ft 437 kts 185°
2026-05-01 10:48 47.90142 2.08730 36239 ft 437 kts 185°
2026-05-01 10:48 47.84101 2.07568 36240 ft 437 kts 185°
2026-05-01 10:49 47.78069 2.06423 36244 ft 437 kts 186°
2026-05-01 10:49 47.72060 2.05287 36238 ft 439 kts 186°
2026-05-01 10:50 47.65984 2.04130 36237 ft 440 kts 187°
2026-05-01 10:50 47.60071 2.01723 36243 ft 442 kts 197°
2026-05-01 10:51 47.54299 1.98500 36238 ft 444 kts 200°
2026-05-01 10:51 47.48575 1.95136 36241 ft 445 kts 200°
2026-05-01 10:52 47.42804 1.91757 36241 ft 445 kts 200°
2026-05-01 10:52 47.37069 1.88436 36243 ft 445 kts 200°
2026-05-01 10:53 47.31284 1.85109 36240 ft 447 kts 200°
2026-05-01 10:53 47.25478 1.81782 36237 ft 447 kts 200°
2026-05-01 10:54 47.19678 1.78468 36241 ft 447 kts 200°
2026-05-01 10:54 47.13867 1.75184 36240 ft 447 kts 200°
2026-05-01 10:55 47.08043 1.71911 36243 ft 448 kts 200°
2026-05-01 10:55 47.02244 1.68656 36239 ft 448 kts 200°
2026-05-01 10:56 46.96418 1.65392 36240 ft 448 kts 200°
2026-05-01 10:56 46.90589 1.62139 36239 ft 448 kts 202°
2026-05-01 10:57 46.84758 1.58886 36240 ft 449 kts 202°
2026-05-01 10:57 46.78913 1.55631 36240 ft 449 kts 202°
2026-05-01 10:58 46.73073 1.52388 36242 ft 449 kts 202°
2026-05-01 10:58 46.67265 1.49171 36242 ft 449 kts 202°
2026-05-01 10:59 46.61423 1.45943 36251 ft 449 kts 202°
2026-05-01 10:59 46.55577 1.42721 36231 ft 449 kts 203°
2026-05-01 11:00 46.49741 1.39512 36254 ft 447 kts 203°
2026-05-01 11:00 46.43924 1.36318 36259 ft 446 kts 203°
2026-05-01 11:01 46.38144 1.33153 36257 ft 446 kts 203°
2026-05-01 11:01 46.32325 1.29975 36255 ft 446 kts 203°
2026-05-01 11:02 46.26519 1.26811 36249 ft 445 kts 203°
2026-05-01 11:02 46.20715 1.23654 36251 ft 445 kts 203°
2026-05-01 11:03 46.14904 1.20501 36246 ft 445 kts 203°
2026-05-01 11:03 46.09134 1.17377 36259 ft 445 kts 203°
2026-05-01 11:04 46.03323 1.14238 36261 ft 446 kts 203°
2026-05-01 11:04 45.97503 1.11101 36264 ft 446 kts 202°
2026-05-01 11:05 45.91695 1.07977 36267 ft 445 kts 202°
2026-05-01 11:05 45.85886 1.04861 36263 ft 445 kts 202°
2026-05-01 11:06 45.80439 1.00915 36266 ft 441 kts 217°
2026-05-01 11:06 45.75586 0.95508 36256 ft 440 kts 220°
2026-05-01 11:07 45.68558 0.87022 36244 ft 441 kts 221°
2026-05-01 11:07 45.63870 0.81370 36244 ft 441 kts 221°
2026-05-01 11:08 45.59167 0.75755 36239 ft 441 kts 220°
2026-05-01 11:09 45.52112 0.67385 36238 ft 441 kts 220°
2026-05-01 11:09 45.47384 0.61793 36233 ft 441 kts 220°
2026-05-01 11:10 45.40293 0.53428 36231 ft 441 kts 220°
2026-05-01 11:10 45.35563 0.47861 36232 ft 441 kts 220°
2026-05-01 11:11 45.30862 0.42341 36230 ft 441 kts 220°
2026-05-01 11:11 45.26129 0.36796 36229 ft 441 kts 220°
2026-05-01 11:12 45.21395 0.31262 36225 ft 441 kts 219°
2026-05-01 11:12 45.16662 0.25742 36220 ft 440 kts 219°
2026-05-01 11:13 45.11926 0.20231 36220 ft 440 kts 219°
2026-05-01 11:13 45.07189 0.14730 36216 ft 440 kts 219°
2026-05-01 11:14 45.02476 0.09269 36216 ft 440 kts 219°
2026-05-01 11:14 44.97731 0.03785 36208 ft 441 kts 219°
2026-05-01 11:15 44.92982 -0.01692 36211 ft 440 kts 219°
2026-05-01 11:15 44.88239 -0.07157 36204 ft 441 kts 219°
2026-05-01 11:16 44.83479 -0.12622 36209 ft 441 kts 219°
2026-05-01 11:16 44.78724 -0.18067 36204 ft 441 kts 219°
2026-05-01 11:17 44.73986 -0.23481 36206 ft 441 kts 219°
2026-05-01 11:17 44.69219 -0.28920 36204 ft 441 kts 219°
2026-05-01 11:18 44.64311 -0.34070 36205 ft 440 kts 211°
2026-05-01 11:18 44.58967 -0.38273 36203 ft 441 kts 208°
2026-05-01 11:19 44.53529 -0.42270 36200 ft 441 kts 207°
2026-05-01 11:19 44.48079 -0.46226 36200 ft 441 kts 207°
2026-05-01 11:20 44.42632 -0.50193 36197 ft 441 kts 207°
2026-05-01 11:20 44.37221 -0.54144 36197 ft 441 kts 207°
2026-05-01 11:21 44.31775 -0.58117 36198 ft 441 kts 207°
2026-05-01 11:21 44.26331 -0.62080 36197 ft 441 kts 207°
2026-05-01 11:22 44.20885 -0.66035 36199 ft 441 kts 207°
2026-05-01 11:22 44.15447 -0.69976 36201 ft 441 kts 207°
2026-05-01 11:23 44.10030 -0.73894 36201 ft 441 kts 207°
2026-05-01 11:23 44.04577 -0.77829 36204 ft 441 kts 207°
2026-05-01 11:24 43.99133 -0.81749 36202 ft 441 kts 208°
2026-05-01 11:25 43.90944 -0.87632 36201 ft 441 kts 208°
2026-05-01 11:25 43.82767 -0.93487 36194 ft 441 kts 208°
2026-05-01 11:26 43.75499 -0.98676 36184 ft 441 kts 208°
2026-05-01 11:27 43.70041 -1.02564 36183 ft 441 kts 208°
2026-05-01 11:27 43.64584 -1.06443 36184 ft 441 kts 208°
2026-05-01 11:28 43.59128 -1.10312 36177 ft 441 kts 208°
2026-05-01 11:28 43.53698 -1.14156 36171 ft 441 kts 208°
2026-05-01 11:29 43.45493 -1.19949 36166 ft 441 kts 208°
2026-05-01 11:30 43.37287 -1.25726 36162 ft 441 kts 208°
2026-05-01 11:30 43.31848 -1.29544 36162 ft 441 kts 208°
2026-05-01 11:31 43.26376 -1.33379 36166 ft 441 kts 208°
2026-05-01 11:31 43.20903 -1.37206 36163 ft 442 kts 208°
2026-05-01 11:32 43.15427 -1.41027 36170 ft 442 kts 208°
2026-05-01 11:32 43.09954 -1.44839 36166 ft 441 kts 208°
2026-05-01 11:33 43.04475 -1.48652 36174 ft 441 kts 208°
2026-05-01 11:33 42.99006 -1.52458 36167 ft 440 kts 208°
2026-05-01 11:34 42.93577 -1.56229 36172 ft 441 kts 208°
2026-05-01 11:34 42.88104 -1.60024 36208 ft 441 kts 208°
2026-05-01 11:35 42.82618 -1.63820 36210 ft 441 kts 208°
2026-05-01 11:35 42.77142 -1.67600 36211 ft 441 kts 208°
2026-05-01 11:36 42.71657 -1.71366 36213 ft 441 kts 207°
2026-05-01 11:36 42.66186 -1.75056 36204 ft 441 kts 207°
2026-05-01 11:37 42.60683 -1.78747 36198 ft 441 kts 207°
2026-05-01 11:37 42.55179 -1.82434 36190 ft 441 kts 207°
2026-05-01 11:38 42.49675 -1.86118 36181 ft 441 kts 207°
2026-05-01 11:38 42.44165 -1.89800 36176 ft 441 kts 207°
2026-05-01 11:39 42.38689 -1.93452 36168 ft 442 kts 208°
2026-05-01 11:39 42.33167 -1.97126 36174 ft 442 kts 208°
2026-05-01 11:40 42.27643 -2.00806 36168 ft 442 kts 208°
2026-05-01 11:40 42.22152 -2.04448 36168 ft 443 kts 208°
2026-05-01 11:41 42.16622 -2.08104 36166 ft 442 kts 207°
2026-05-01 11:41 42.11086 -2.11759 36159 ft 443 kts 208°
2026-05-01 11:42 42.05526 -2.15422 36158 ft 444 kts 208°
2026-05-01 11:42 42.00006 -2.19052 36159 ft 444 kts 207°
2026-05-01 11:43 41.94443 -2.22703 36158 ft 445 kts 207°
2026-05-01 11:43 41.88869 -2.26354 36165 ft 446 kts 207°
2026-05-01 11:44 41.80515 -2.31812 36174 ft 449 kts 208°
2026-05-01 11:44 41.77705 -2.33645 35937 ft 449 kts 208°
2026-05-01 11:44 41.74885 -2.35482 35559 ft 450 kts 208°
2026-05-01 11:45 41.72065 -2.37317 34991 ft 451 kts 208°
2026-05-01 11:45 41.69233 -2.39159 34284 ft 453 kts 208°
2026-05-01 11:45 41.66427 -2.40982 33529 ft 455 kts 208°
2026-05-01 11:45 41.63570 -2.42837 32820 ft 456 kts 207°
2026-05-01 11:46 41.60712 -2.44689 32172 ft 457 kts 207°
2026-05-01 11:46 41.57846 -2.46545 31692 ft 457 kts 207°
2026-05-01 11:46 41.54982 -2.48398 31180 ft 456 kts 207°
2026-05-01 11:46 41.52120 -2.50247 30646 ft 457 kts 207°
2026-05-01 11:47 41.49254 -2.52099 30093 ft 458 kts 207°
2026-05-01 11:47 41.46377 -2.53954 29496 ft 459 kts 207°
2026-05-01 11:47 41.43495 -2.55811 28968 ft 460 kts 207°
2026-05-01 11:47 41.40643 -2.57647 28411 ft 461 kts 207°
2026-05-01 11:48 41.37752 -2.59507 27859 ft 461 kts 207°
2026-05-01 11:48 41.34848 -2.61356 27282 ft 463 kts 205°
2026-05-01 11:48 41.31774 -2.62638 26711 ft 466 kts 191°
2026-05-01 11:48 41.28522 -2.62826 26154 ft 470 kts 179°
2026-05-01 11:49 41.25244 -2.62531 25573 ft 472 kts 177°
2026-05-01 11:49 41.21964 -2.62171 24996 ft 473 kts 177°
2026-05-01 11:49 41.18680 -2.61827 24414 ft 473 kts 177°
2026-05-01 11:49 41.15439 -2.61507 23828 ft 473 kts 177°
2026-05-01 11:50 41.12165 -2.61197 22820 ft 468 kts 177°
2026-05-01 11:50 41.08925 -2.60898 22004 ft 467 kts 177°
2026-05-01 11:50 41.05696 -2.60605 21736 ft 463 kts 177°
2026-05-01 11:50 41.02504 -2.60318 21331 ft 457 kts 178°
2026-05-01 11:51 40.99338 -2.60035 20844 ft 454 kts 177°
2026-05-01 11:51 40.96191 -2.59754 20252 ft 451 kts 178°
2026-05-01 11:51 40.93068 -2.59477 19641 ft 447 kts 177°
2026-05-01 11:51 40.89973 -2.59203 19042 ft 444 kts 178°
2026-05-01 11:52 40.86900 -2.58931 18484 ft 442 kts 178°
2026-05-01 11:52 40.83851 -2.59085 17832 ft 435 kts 191°
2026-05-01 11:52 40.81051 -2.60359 17233 ft 433 kts 209°
2026-05-01 11:52 40.78680 -2.62696 16805 ft 425 kts 226°
2026-05-01 11:53 40.76757 -2.65638 16341 ft 422 kts 231°
2026-05-01 11:53 40.74885 -2.68608 15784 ft 421 kts 230°
2026-05-01 11:53 40.72967 -2.71484 15245 ft 415 kts 228°
2026-05-01 11:53 40.71014 -2.74271 15135 ft 415 kts 227°
2026-05-01 11:54 40.69026 -2.77026 14952 ft 413 kts 226°
2026-05-01 11:54 40.67033 -2.79738 14430 ft 410 kts 226°
2026-05-01 11:54 40.64934 -2.82243 13855 ft 407 kts 214°
2026-05-01 11:54 40.62523 -2.84213 13428 ft 408 kts 212°
2026-05-01 11:55 40.60128 -2.86154 13054 ft 401 kts 212°
2026-05-01 11:55 40.57743 -2.88062 12699 ft 401 kts 211°
2026-05-01 11:55 40.55365 -2.89965 12364 ft 400 kts 211°
2026-05-01 11:55 40.52998 -2.91861 12005 ft 396 kts 211°
2026-05-01 11:56 40.50673 -2.93726 11463 ft 384 kts 211°
2026-05-01 11:56 40.48453 -2.95508 10428 ft 375 kts 211°
2026-05-01 11:56 40.46248 -2.97276 9437 ft 365 kts 211°
2026-05-01 11:56 40.44112 -2.98989 8632 ft 353 kts 210°
2026-05-01 11:57 40.42030 -3.00656 8162 ft 351 kts 210°
2026-05-01 11:57 40.39937 -3.02330 8012 ft 353 kts 210°
2026-05-01 11:57 40.37843 -3.04006 8005 ft 351 kts 211°
2026-05-01 11:57 40.35757 -3.05673 7995 ft 350 kts 211°
2026-05-01 11:58 40.33680 -3.07333 7991 ft 349 kts 211°
2026-05-01 11:58 40.31605 -3.08990 7998 ft 349 kts 211°
2026-05-01 11:58 40.27638 -3.12239 7926 ft 314 kts 217°
2026-05-01 11:59 40.26343 -3.14432 7673 ft 295 kts 246°
2026-05-01 11:59 40.26089 -3.16988 7439 ft 283 kts 272°
2026-05-01 11:59 40.26402 -3.19460 7228 ft 267 kts 279°
2026-05-01 12:00 40.27122 -3.23993 6706 ft 245 kts 278°
2026-05-01 12:00 40.27441 -3.26176 6166 ft 244 kts 277°
2026-05-01 12:00 40.28035 -3.30490 5192 ft 237 kts 278°
2026-05-01 12:01 40.28511 -3.32578 5012 ft 243 kts 294°
2026-05-01 12:01 40.29462 -3.34408 4993 ft 240 kts 307°
2026-05-01 12:01 40.30517 -3.36055 4995 ft 233 kts 309°
2026-05-01 12:01 40.31591 -3.37595 4997 ft 229 kts 315°
2026-05-01 12:02 40.32793 -3.38918 5000 ft 222 kts 320°
2026-05-01 12:02 40.33970 -3.40100 5006 ft 206 kts 320°
2026-05-01 12:02 40.35099 -3.41220 4978 ft 201 kts 321°
2026-05-01 12:02 40.36200 -3.42287 4722 ft 191 kts 320°
2026-05-01 12:03 40.37220 -3.43329 4435 ft 179 kts 319°
2026-05-01 12:03 40.38189 -3.44317 4162 ft 176 kts 319°
2026-05-01 12:03 40.39163 -3.45305 3928 ft 177 kts 319°
2026-05-01 12:03 40.40134 -3.46291 3696 ft 176 kts 321°
2026-05-01 12:04 40.41084 -3.47252 3462 ft 169 kts 320°
2026-05-01 12:04 40.41966 -3.48154 3215 ft 154 kts 319°
2026-05-01 12:04 40.42778 -3.49036 2994 ft 150 kts 320°
2026-05-01 12:04 40.43611 -3.49853 2757 ft 149 kts 323°
2026-05-01 12:05 40.44444 -3.50669 2554 ft 151 kts 321°
2026-05-01 12:05 40.46109 -3.52371 2254 ft 151 kts 323°
2026-05-01 12:05 40.46946 -3.53194 2081 ft 150 kts 321°
2026-05-01 12:06 40.47774 -3.54044 2000 ft 151 kts 321°
2026-05-01 12:06 40.48541 -3.54822 1987 ft 105 kts 322°
2026-05-01 12:06 40.48996 -3.55283 1985 ft 75 kts 322°
2026-05-01 12:06 40.49263 -3.55766 1986 ft 43 kts 289°
2026-05-01 12:07 40.49303 -3.56011 1984 ft 20 kts 271°
2026-05-01 12:07 40.49302 -3.56089 1984 ft 1 kts 266°
2026-05-01 12:07 40.49299 -3.56145 1987 ft 11 kts 266°
2026-05-01 12:07 40.49329 -3.56260 1987 ft 11 kts 283°
2026-05-01 12:08 40.49329 -3.56347 1984 ft 0 kts 270°